• In Moldova, Republic
  • List of Countries
  • For 7 days
  • Water Temperature
  • Satellite Maps
  • Weather Map
  • Weather Widgets
  • user-avatar
    Login

    Hourly Weather Berezovaya Roscha

    Today, 23 October, Tuesday

    Time Temperature Precipitation Wind Pressure Humidity
    00:00 +3°C° 0 mm 3 mps 749 mmHg 83%
    01:00 +3°C° 0 mm 3 mps 749 mmHg 85%
    02:00 +2°C° 0 mm 3 mps 748 mmHg 87%
    03:00 +2°C° 0.3 mm 3 mps 747 mmHg 88%
    04:00 +3°C° 0.3 mm 4 mps 747 mmHg 89%
    05:00 +3°C° 0.3 mm 4 mps 746 mmHg 90%
    06:00 +3°C° 0.3 mm 4 mps 746 mmHg 90%
    07:00 +4°C° 0.3 mm 4 mps 746 mmHg 90%
    08:00 +4°C° 0.3 mm 3 mps 746 mmHg 91%
    09:00 +5°C° 0 mm 3 mps 745 mmHg 84%
    10:00 +7°C° 0 mm 3 mps 745 mmHg 77%
    11:00 +8°C° 0 mm 3 mps 744 mmHg 71%
    12:00 +7°C° 0 mm 4 mps 743 mmHg 67%
    13:00 +8°C° 0 mm 4 mps 743 mmHg 64%
    14:00 +8°C° 0 mm 5 mps 742 mmHg 60%
    15:00 +7°C° 0 mm 4 mps 741 mmHg 63%
    16:00 +6°C° 0 mm 4 mps 740 mmHg 67%
    17:00 +6°C° 0 mm 4 mps 739 mmHg 70%
    18:00 +6°C° 0.2 mm 5 mps 738 mmHg 72%
    19:00 +5°C° 0.2 mm 5 mps 737 mmHg 74%
    20:00 +4°C° 0.2 mm 6 mps 736 mmHg 76%
    21:00 +4°C° 0.2 mm 6 mps 734 mmHg 78%
    22:00 +4°C° 0.2 mm 7 mps 733 mmHg 79%
    23:00 +4°C° 0.2 mm 7 mps 732 mmHg 80%

    Tomorrow, 24 October, Wednesday

    Time Temperature Precipitation Wind Pressure Humidity
    00:00 +4°C° 0.6 mm 7 mps 730 mmHg 82%
    01:00 +4°C° 0.6 mm 7 mps 729 mmHg 83%
    02:00 +4°C° 0.6 mm 6 mps 728 mmHg 85%
    03:00 +4°C° 0.3 mm 6 mps 727 mmHg 86%
    04:00 +5°C° 0.3 mm 5 mps 726 mmHg 87%
    05:00 +5°C° 0.3 mm 5 mps 725 mmHg 88%
    06:00 +5°C° 0.4 mm 5 mps 725 mmHg 88%
    07:00 +5°C° 0.4 mm 5 mps 724 mmHg 88%
    08:00 +5°C° 0.4 mm 4 mps 724 mmHg 88%
    09:00 +5°C° 0.9 mm 4 mps 724 mmHg 86%
    10:00 +5°C° 0.9 mm 4 mps 724 mmHg 84%
    11:00 +6°C° 0.9 mm 4 mps 724 mmHg 82%
    12:00 +6°C° 0.5 mm 4 mps 724 mmHg 79%
    13:00 +6°C° 0.5 mm 4 mps 724 mmHg 77%
    14:00 +7°C° 0.5 mm 4 mps 725 mmHg 74%
    15:00 +6°C° 0.1 mm 4 mps 725 mmHg 76%
    16:00 +5°C° 0.1 mm 4 mps 725 mmHg 78%
    17:00 +5°C° 0.1 mm 4 mps 726 mmHg 81%
    18:00 +4°C° 0.1 mm 4 mps 726 mmHg 81%
    19:00 +4°C° 0.1 mm 4 mps 727 mmHg 82%
    20:00 +4°C° 0.1 mm 4 mps 727 mmHg 83%
    21:00 +4°C° 0 mm 4 mps 727 mmHg 83%
    22:00 +3°C° 0 mm 4 mps 728 mmHg 84%
    23:00 +3°C° 0 mm 4 mps 728 mmHg 84%

    Day after tomorrow, 25 October, Thursday

    Time Temperature Precipitation Wind Pressure Humidity
    00:00 +2°C° 0 mm 5 mps 728 mmHg 86%
    01:00 +1°C° 0 mm 5 mps 729 mmHg 87%
    02:00 +1°C° 0 mm 5 mps 729 mmHg 89%
    03:00 +2°C° 0 mm 5 mps 729 mmHg 87%
    04:00 +2°C° 0 mm 6 mps 729 mmHg 86%
    05:00 +3°C° 0 mm 6 mps 729 mmHg 85%
    06:00 +3°C° 0.1 mm 6 mps 730 mmHg 84%
    07:00 +3°C° 0.1 mm 7 mps 730 mmHg 82%
    08:00 +3°C° 0.1 mm 7 mps 731 mmHg 80%
    09:00 +3°C° 0.1 mm 7 mps 731 mmHg 78%
    10:00 +3°C° 0.1 mm 7 mps 732 mmHg 76%
    11:00 +3°C° 0.1 mm 7 mps 732 mmHg 74%
    12:00 +3°C° 0 mm 7 mps 732 mmHg 72%
    13:00 +3°C° 0 mm 7 mps 732 mmHg 70%
    14:00 +3°C° 0 mm 6 mps 733 mmHg 68%
    15:00 +3°C° 0 mm 6 mps 733 mmHg 69%
    16:00 +2°C° 0 mm 5 mps 733 mmHg 70%
    17:00 +3°C° 0 mm 4 mps 733 mmHg 71%
    18:00 +3°C° 0 mm 4 mps 734 mmHg 72%
    19:00 +3°C° 0 mm 3 mps 734 mmHg 72%
    20:00 +4°C° 0 mm 2 mps 734 mmHg 73%
    21:00 +4°C° 0 mm 2 mps 734 mmHg 74%
    22:00 +3°C° 0 mm 2 mps 735 mmHg 74%
    23:00 +3°C° 0 mm 2 mps 735 mmHg 75%

    26 October, Friday

    Time Temperature Precipitation Wind Pressure Humidity
    00:00 +3°C° 0 mm 2 mps 736 mmHg 78%
    01:00 +2°C° 0 mm 2 mps 736 mmHg 80%
    02:00 +2°C° 0 mm 2 mps 737 mmHg 82%
    03:00 +1°C° 0 mm 2 mps 737 mmHg 86%
    04:00 0°C° 0 mm 3 mps 738 mmHg 89%
    05:00 0°C° 0 mm 3 mps 738 mmHg 92%
    06:00 0°C° 0 mm 3 mps 739 mmHg 91%
    07:00 0°C° 0 mm 3 mps 739 mmHg 91%
    08:00 -1°C° 0 mm 4 mps 740 mmHg 90%
    09:00 +1°C° 0 mm 4 mps 740 mmHg 84%
    10:00 +3°C° 0 mm 4 mps 740 mmHg 78%
    11:00 +3°C° 0 mm 5 mps 741 mmHg 72%
    12:00 +5°C° 0 mm 5 mps 741 mmHg 71%
    13:00 +5°C° 0 mm 4 mps 741 mmHg 71%
    14:00 +5°C° 0 mm 4 mps 741 mmHg 71%
    15:00 +5°C° 0 mm 4 mps 741 mmHg 75%
    16:00 +5°C° 0 mm 3 mps 742 mmHg 78%
    17:00 +4°C° 0 mm 3 mps 742 mmHg 81%
    18:00 +4°C° 0 mm 3 mps 743 mmHg 83%
    19:00 +4°C° 0 mm 3 mps 743 mmHg 84%
    20:00 +5°C° 0 mm 2 mps 743 mmHg 86%
    21:00 +3°C° 0 mm 3 mps 744 mmHg 88%
    22:00 +3°C° 0 mm 3 mps 744 mmHg 91%
    23:00 +2°C° 0 mm 3 mps 744 mmHg 93%

    27 October, Saturday

    Time Temperature Precipitation Wind Pressure Humidity
    00:00 +2°C° 0 mm 3 mps 744 mmHg 94%
    01:00 +2°C° 0 mm 3 mps 745 mmHg 95%
    02:00 +2°C° 0 mm 2 mps 745 mmHg 96%
    03:00 +1°C° 0 mm 3 mps 745 mmHg 96%
    04:00 +1°C° 0 mm 3 mps 745 mmHg 95%
    05:00 +1°C° 0 mm 3 mps 745 mmHg 95%
    06:00 +2°C° 0 mm 3 mps 744 mmHg 94%
    07:00 +3°C° 0 mm 4 mps 744 mmHg 92%
    08:00 +3°C° 0 mm 4 mps 744 mmHg 90%
    09:00 +5°C° 0 mm 5 mps 744 mmHg 84%
    10:00 +6°C° 0 mm 5 mps 743 mmHg 77%
    11:00 +8°C° 0 mm 6 mps 743 mmHg 70%
    12:00 +8°C° 0 mm 6 mps 743 mmHg 67%
    13:00 +9°C° 0 mm 5 mps 742 mmHg 63%
    14:00 +9°C° 0 mm 5 mps 742 mmHg 60%
    15:00 +9°C° 0 mm 5 mps 742 mmHg 63%
    16:00 +8°C° 0 mm 5 mps 741 mmHg 65%
    17:00 +8°C° 0 mm 4 mps 741 mmHg 68%
    18:00 +8°C° 0 mm 4 mps 741 mmHg 73%
    19:00 +8°C° 0 mm 4 mps 741 mmHg 78%
    20:00 +8°C° 0 mm 4 mps 741 mmHg 83%
    21:00 +8°C° 0.1 mm 4 mps 741 mmHg 85%
    22:00 +8°C° 0.1 mm 4 mps 741 mmHg 87%
    23:00 +8°C° 0.1 mm 4 mps 741 mmHg 89%

    28 October, Sunday

    Time Temperature Precipitation Wind Pressure Humidity
    00:00 +9°C° 0.4 mm 3 mps 741 mmHg 90%
    01:00 +9°C° 0.4 mm 3 mps 740 mmHg 91%
    02:00 +9°C° 0.4 mm 3 mps 740 mmHg 92%
    03:00 +10°C° 0.2 mm 3 mps 740 mmHg 90%
    04:00 +10°C° 0.2 mm 4 mps 740 mmHg 88%
    05:00 +10°C° 0.2 mm 4 mps 740 mmHg 86%
    06:00 +10°C° 0.3 mm 4 mps 739 mmHg 86%
    07:00 +10°C° 0.3 mm 4 mps 739 mmHg 86%
    08:00 +10°C° 0.3 mm 4 mps 739 mmHg 85%
    09:00 +10°C° 0 mm 5 mps 739 mmHg 80%
    10:00 +12°C° 0 mm 5 mps 739 mmHg 74%
    11:00 +13°C° 0 mm 6 mps 738 mmHg 68%
    12:00 +14°C° 0.1 mm 6 mps 738 mmHg 69%
    13:00 +14°C° 0.1 mm 5 mps 738 mmHg 70%
    14:00 +14°C° 0.1 mm 5 mps 738 mmHg 70%
    15:00 +14°C° 0.1 mm 5 mps 738 mmHg 71%
    16:00 +14°C° 0.1 mm 5 mps 738 mmHg 73%
    17:00 +14°C° 0.1 mm 4 mps 738 mmHg 74%
    18:00 +14°C° 0 mm 5 mps 739 mmHg 75%
    19:00 +14°C° 0 mm 5 mps 739 mmHg 75%
    20:00 +13°C° 0 mm 6 mps 740 mmHg 76%
    21:00 +11°C° 0 mm 6 mps 741 mmHg 78%
    22:00 +9°C° 0 mm 6 mps 742 mmHg 80%
    23:00 +7°C° 0 mm 6 mps 743 mmHg 82%

    29 October, Monday

    Time Temperature Precipitation Wind Pressure Humidity
    00:00 +6°C° 0 mm 5 mps 744 mmHg 81%
    01:00 +5°C° 0 mm 5 mps 745 mmHg 80%
    02:00 +5°C° 0 mm 4 mps 746 mmHg 79%
    03:00 +4°C° 0 mm 3 mps 747 mmHg 80%
    04:00 +4°C° 0 mm 3 mps 747 mmHg 81%
    05:00 +4°C° 0 mm 3 mps 748 mmHg 81%
    06:00 +4°C° 0 mm 3 mps 748 mmHg 81%
    07:00 +4°C° 0 mm 3 mps 749 mmHg 81%
    08:00 +4°C° 0 mm 3 mps 750 mmHg 81%
    09:00 +4°C° 0 mm 3 mps 750 mmHg 77%
    10:00 +6°C° 0 mm 2 mps 751 mmHg 73%
    11:00 +7°C° 0 mm 2 mps 751 mmHg 69%
    12:00 +7°C° 0 mm 2 mps 751 mmHg 66%
    13:00 +8°C° 0 mm 1 mps 751 mmHg 62%
    14:00 +9°C° 0 mm 1 mps 751 mmHg 59%
    15:00 +8°C° 0 mm 1 mps 752 mmHg 62%
    16:00 +8°C° 0 mm 1 mps 752 mmHg 64%
    17:00 +7°C° 0 mm 1 mps 752 mmHg 67%
    18:00 +7°C° 0.1 mm 1 mps 752 mmHg 69%
    19:00 +6°C° 0.1 mm 2 mps 752 mmHg 71%
    20:00 +6°C° 0.1 mm 2 mps 752 mmHg 73%
    21:00 +5°C° 0.3 mm 3 mps 751 mmHg 76%
    22:00 +5°C° 0.3 mm 3 mps 751 mmHg 78%
    23:00 +4°C° 0.3 mm 3 mps 751 mmHg 80%
    Show more